Regional Weather Roundup
Issued by NWS

Home | Current Version | Previous Version | Graphics & Text | Print | Product List | Glossary On
Versions: 1 2 3 4 5 6 7 8 9 10 11 12 13 14 15 16 17 18 19 20 21 22 23 24 25 26 27 28 29 30 31 32 33 34 35 36 37 38 39 40 41 42 43 44 45 46 47 48 49 50
212
ASUS45 KABQ 260301
RWRNM
NEW MEXICO REGIONAL WEATHER ROUNDUP
NATIONAL WEATHER SERVICE ALBUQUERQUE NM
900 PM MDT SAT MAR 25 2017

NOTE: "FAIR" MEANS FEW OR NO CLOUDS BELOW 12,000 FEET AGL WITH NO
       SIGNIFICANT WEATHER OR OBSTRUCTIONS TO VISION.

      THIS PRODUCT IS RELEASED AS TWO VERSIONS.  ONE VERSION NEAR
      THE TOP OF THE HOUR CONTAINING PRELIMINARY DATA FROM ALBUQUERQUE
      AND OTHER STATIONS.  A FINAL VERSION WITH ADDITIONAL DATA IS
      ISSUED ABOUT 10 MINUTES AFTER THE HOUR.

NMZ501-503-504-510>518-260400-
NORTHWEST PLATEAU/NORTHCENTRAL MOUNTAINS

CITY           SKY/WX    TMP DP  RH WIND       PRES   REMARKS
FARMINGTON     LGT RAIN  42  39  89 NW15      29.96R
LOS ALAMOS     CLOUDY    52  24  33 W14G21    29.91R
SANTA FE       FAIR      56  20  24 S14       29.85S
TAOS             N/A     45  25  45 N3        29.91R
ANGEL FIRE     MOCLDY    32  25  74 CALM      29.97S

$$
NMZ402-403-502-505>509-260400-
WESTCENTRAL MOUNTAINS/SOUTHWEST MOUNTAINS

CITY           SKY/WX    TMP DP  RH WIND       PRES   REMARKS
GALLUP         FAIR      40  34  79 W23G30    30.04R WCI  30
GRANTS         FAIR      46  28  49 W17G35    29.98R
SILVER CITY    FAIR      58  20  23 W13       29.95R

$$
NMZ407-409-411-412-260400-
SOUTHERN DESERTS

CITY           SKY/WX    TMP DP  RH WIND       PRES   REMARKS
DEMING         FAIR      68  15  13 W16       29.89R
LAS CRUCES     FAIR      68  12  11 SW12      29.87S
HOLLOMAN AFB   FAIR      66  16  14 SE13      29.88S
ALAMOGORDO     FAIR      57  19  23 S10       29.86S
T OR C         FAIR      61  15  16 W7        29.86R

$$
NMZ519>523-260400-
CENTRAL VALLEYS/CENTRAL HIGHLANDS

CITY           SKY/WX    TMP DP  RH WIND       PRES   REMARKS
ALBUQUERQUE    MOCLDY    63  20  19 W13       29.86R
DOUBLE EAGLE   PTCLDY    57  23  26 W28G35    29.88R
MORIARTY ARPT  FAIR      48  20  32 S9        29.90R
CLINES CORNERS FAIR      48  17  29 S15       29.94R
BELEN          FAIR      60   9  13 SW16      29.87R
SOCORRO        FAIR      64  12  13 SW10      29.87R

$$
NMZ524>526-539-540-260400-
SOUTHCENTRAL MOUNTAINS

CITY           SKY/WX    TMP DP  RH WIND       PRES   REMARKS
RUIDOSO        NOT AVBL

$$
NMZ527>531-260400-
NORTHEAST HIGHLANDS/NORTHEAST PLAINS

CITY           SKY/WX    TMP DP  RH WIND       PRES   REMARKS
LAS VEGAS      FAIR      49  17  28 S13       29.90R
RATON          FAIR      53  24  32 CALM      29.86F
CLAYTON        FAIR      48  32  53 SE8       29.87S

$$
NMZ532>537-260400-
EASTCENTRAL PLAINS

CITY           SKY/WX    TMP DP  RH WIND       PRES   REMARKS
TUCUMCARI      FAIR      60  23  24 S8        29.80S
CANNON AFB     FAIR      54  29  38 SE10      29.87S
CLOVIS AIRPORT FAIR      54  28  37 S12       29.88S

$$
NMZ028-029-538-260400-
SOUTHEAST PLAINS

CITY           SKY/WX    TMP DP  RH WIND       PRES   REMARKS
ROSWELL        FAIR      66  24  20 S17         N/A
ARTESIA        FAIR      59  27  29 S9        29.85R
CARLSBAD       FAIR      61  27  27 S7        29.83S
HOBBS          FAIR      57  23  26 SE7       29.90R


$$




USA.gov is the U.S. government's official web portal to all federal, state and local government web resources and services.